| time (UTC) | temp F | wind direction | speed MPH | gust MPH | rain 1hr in | rain 24hr in | rain mn in | humidity % | barometer mb |
| 20260504081818 | 60 | 0.0 | 2.0 | 0.00 | 0.16 | 0.00 | 86 | 1012.7 | |
| 20260504080850 | 60 | 0.0 | 2.0 | 0.00 | 0.16 | 0.00 | 85 | 1012.6 | |
| 20260504050520 | 51 | 248 | 1.0 | 2.0 | 0.00 | 0.21 | 0.00 | 91 | 1011.2 |
| 20260504045520 | 51 | 248 | 1.0 | 1.0 | 0.00 | 0.22 | 0.00 | 91 | 1011.1 |
| 20260504044520 | 51 | 248 | 1.0 | 1.0 | 0.00 | 0.22 | 0.00 | 91 | 1011.2 |
| 20260504043519 | 51 | 248 | 1.0 | 2.0 | 0.00 | 0.22 | 0.00 | 91 | 1011.1 |
| 20260504042519 | 51 | 270 | 1.0 | 2.0 | 0.00 | 0.22 | 0.00 | 91 | 1010.9 |
| 20260504041531 | 51 | 0.0 | 0.0 | 0.00 | 0.22 | 0.00 | 91 | 1010.8 | |
| 20260504040520 | 51 | 248 | 1.0 | 1.0 | 0.00 | 0.22 | 0.00 | 91 | 1011.0 |
| 20260504035541 | 52 | 248 | 1.0 | 2.0 | 0.00 | 0.22 | 0.00 | 90 | 1011.0 |
| 20260504034520 | 52 | 0.0 | 1.0 | 0.00 | 0.22 | 0.00 | 90 | 1011.1 | |
| 20260504033541 | 52 | 248 | 1.0 | 2.0 | 0.00 | 0.22 | 0.00 | 90 | 1011.1 |
| 20260504032520 | 52 | 0.0 | 1.0 | 0.00 | 0.22 | 0.00 | 90 | 1011.1 | |
| 20260504031531 | 52 | 0.0 | 1.0 | 0.00 | 0.22 | 0.00 | 90 | 1011.1 | |
| 20260504030520 | 52 | 0.0 | 1.0 | 0.00 | 0.22 | 0.00 | 90 | 1011.1 | |
| 20260504025540 | 52 | 225 | 2.0 | 3.0 | 0.00 | 0.22 | 0.00 | 90 | 1011.0 |
| 20260504024530 | 52 | 225 | 1.0 | 2.0 | 0.00 | 0.22 | 0.00 | 90 | 1011.1 |
| 20260504023519 | 52 | 0.0 | 1.0 | 0.00 | 0.22 | 0.00 | 90 | 1011.1 | |
| 20260504022519 | 53 | 0.0 | 1.0 | 0.00 | 0.22 | 0.00 | 89 | 1011.1 | |
| 20260504021519 | 53 | 248 | 1.0 | 2.0 | 0.00 | 0.22 | 0.00 | 89 | 1010.9 |
| 20260504020519 | 53 | 270 | 1.0 | 2.0 | 0.00 | 0.22 | 0.00 | 89 | 1010.9 |
| 20260504015519 | 53 | 248 | 1.0 | 2.0 | 0.00 | 0.22 | 0.00 | 89 | 1011.0 |
| 20260504014520 | 53 | 248 | 1.0 | 3.0 | 0.00 | 0.22 | 0.00 | 89 | 1010.7 |
| 20260504013530 | 53 | 270 | 1.0 | 4.0 | 0.00 | 0.22 | 0.00 | 89 | 1010.8 |
| 20260504012530 | 53 | 293 | 1.0 | 2.0 | 0.00 | 0.22 | 0.00 | 89 | 1010.8 |
| 20260504011519 | 54 | 0.0 | 1.0 | 0.00 | 0.22 | 0.00 | 89 | 1010.9 | |
| 20260504010530 | 54 | 248 | 1.0 | 2.0 | 0.00 | 0.22 | 0.00 | 89 | 1011.0 |
| 20260504005530 | 54 | 293 | 1.0 | 2.0 | 0.00 | 0.22 | 0.00 | 89 | 1011.1 |
| 20260504004530 | 54 | 270 | 1.0 | 2.0 | 0.00 | 0.22 | 0.00 | 89 | 1010.8 |
| 20260504003519 | 54 | 270 | 1.0 | 2.0 | 0.00 | 0.22 | 0.00 | 89 | 1010.7 |
| 20260504002541 | 54 | 248 | 1.0 | 2.0 | 0.00 | 0.22 | 0.00 | 89 | 1010.8 |
| 20260504001519 | 55 | 293 | 1.0 | 2.0 | 0.00 | 0.22 | 0.00 | 89 | 1010.8 |
| 20260504000540 | 55 | 248 | 1.0 | 2.0 | 0.00 | 0.22 | 0.00 | 89 | 1010.8 |
| 20260503235531 | 55 | 248 | 2.0 | 2.0 | 0.00 | 0.22 | 0.22 | 88 | 1010.8 |
| 20260503234541 | 55 | 248 | 1.0 | 2.0 | 0.00 | 0.22 | 0.22 | 88 | 1010.7 |
| 20260503233540 | 56 | 248 | 2.0 | 2.0 | 0.00 | 0.22 | 0.22 | 88 | 1010.7 |
| 20260503232520 | 56 | 225 | 1.0 | 2.0 | 0.00 | 0.22 | 0.22 | 88 | 1010.7 |
| 20260503231530 | 56 | 0.0 | 0.0 | 0.00 | 0.22 | 0.22 | 88 | 1010.6 | |
| 20260503230540 | 56 | 225 | 1.0 | 2.0 | 0.00 | 0.22 | 0.22 | 88 | 1010.6 |
| 20260503225531 | 56 | 248 | 1.0 | 2.0 | 0.00 | 0.22 | 0.22 | 88 | 1010.7 |
| 20260503224519 | 56 | 270 | 1.0 | 2.0 | 0.00 | 0.22 | 0.22 | 87 | 1010.7 |
| 20260503223541 | 56 | 270 | 1.0 | 2.0 | 0.00 | 0.22 | 0.22 | 87 | 1010.7 |
| 20260503222530 | 56 | 203 | 1.0 | 2.0 | 0.00 | 0.22 | 0.22 | 87 | 1010.6 |
| 20260503221550 | 57 | 225 | 1.0 | 2.0 | 0.00 | 0.22 | 0.22 | 87 | 1010.5 |
| 20260503220530 | 57 | 248 | 2.0 | 3.0 | 0.00 | 0.22 | 0.22 | 87 | 1010.4 |
| 20260503215526 | 57 | 270 | 1.0 | 2.0 | 0.00 | 0.22 | 0.22 | 87 | 1010.4 |
| 20260503214541 | 58 | 248 | 1.0 | 3.0 | 0.00 | 0.22 | 0.22 | 87 | 1010.6 |
| 20260503213520 | 58 | 225 | 1.0 | 3.0 | 0.00 | 0.22 | 0.22 | 87 | 1010.6 |
| 20260503212540 | 58 | 225 | 2.0 | 2.0 | 0.00 | 0.22 | 0.22 | 87 | 1010.5 |
| 20260503211539 | 58 | 248 | 1.0 | 2.0 | 0.00 | 0.22 | 0.22 | 87 | 1010.4 |
| 20260503210552 | 59 | 0.0 | 0.0 | 0.00 | 0.22 | 0.22 | 87 | 1010.3 | |
| 20260503205519 | 59 | 225 | 2.0 | 3.0 | 0.00 | 0.22 | 0.22 | 87 | 1010.4 |
| 20260503204530 | 59 | 248 | 2.0 | 3.0 | 0.00 | 0.22 | 0.22 | 87 | 1010.3 |
| 20260503203559 | 60 | 180 | 2.0 | 3.0 | 0.00 | 0.22 | 0.22 | 87 | 1010.4 |
| 20260503202519 | 60 | 248 | 2.0 | 3.0 | 0.00 | 0.22 | 0.22 | 87 | 1010.4 |
| 20260503201530 | 60 | 203 | 1.0 | 3.0 | 0.00 | 0.22 | 0.22 | 86 | 1010.5 |
| 20260503200519 | 60 | 225 | 1.0 | 3.0 | 0.00 | 0.22 | 0.22 | 86 | 1010.2 |
| 20260503195530 | 60 | 0.0 | 0.0 | 0.00 | 0.22 | 0.22 | 86 | 1010.2 | |
| 20260503194519 | 60 | 0.0 | 0.0 | 0.00 | 0.22 | 0.22 | 86 | 1010.0 | |
| 20260503193520 | 61 | 0.0 | 0.0 | 0.00 | 0.22 | 0.22 | 86 | 1009.9 | |
| 20260503192519 | 61 | 225 | 1.0 | 2.0 | 0.00 | 0.22 | 0.22 | 85 | 1009.8 |
| 20260503191530 | 61 | 0.0 | 1.0 | 0.00 | 0.22 | 0.22 | 85 | 1009.8 | |
| 20260503190530 | 61 | 0.0 | 0.0 | 0.00 | 0.22 | 0.22 | 85 | 1009.7 | |
| 20260503185519 | 61 | 0.0 | 1.0 | 0.00 | 0.22 | 0.22 | 84 | 1009.6 | |
| 20260503184727 | 61 | 180 | 1.0 | 2.0 | 0.00 | 0.22 | 0.22 | 84 | 1009.5 |
| 20260503183619 | 61 | 0.0 | 2.0 | 0.00 | 0.22 | 0.22 | 84 | 1009.4 | |
| 20260503182619 | 62 | 180 | 2.0 | 4.0 | 0.00 | 0.22 | 0.22 | 83 | 1009.5 |
| 20260503181640 | 62 | 203 | 1.0 | 3.0 | 0.00 | 0.22 | 0.22 | 83 | 1009.4 |
| 20260503180619 | 62 | 0.0 | 1.0 | 0.00 | 0.22 | 0.22 | 83 | 1009.3 | |
| 20260503175630 | 62 | 248 | 1.0 | 3.0 | 0.00 | 0.22 | 0.22 | 83 | 1009.3 |
| 20260503174619 | 62 | 180 | 1.0 | 1.0 | 0.00 | 0.22 | 0.22 | 82 | 1009.3 |
| 20260503173640 | 62 | 225 | 2.0 | 4.0 | 0.00 | 0.22 | 0.22 | 83 | 1009.2 |
| 20260503172640 | 62 | 0.0 | 1.0 | 0.00 | 0.22 | 0.22 | 83 | 1009.4 | |
| 20260503171836 | 62 | 225 | 3.0 | 5.0 | 0.00 | 0.22 | 0.22 | 83 | 1009.4 |
| 20260503171319 | 62 | 0.0 | 1.0 | 0.00 | 0.22 | 0.22 | 83 | 1009.4 | |
| 20260503170339 | 62 | 248 | 3.0 | 6.0 | 0.00 | 0.22 | 0.22 | 83 | 1009.3 |
| 20260503150839 | 60 | 113 | 2.0 | 4.0 | 0.02 | 0.22 | 0.22 | 91 | 1009.6 |
| 20260503130840 | 61 | 338 | 2.0 | 4.0 | 0.14 | 0.20 | 0.20 | 89 | 1009.4 |
| 20260503110819 | 68 | 225 | 3.0 | 5.0 | 0.00 | 0.06 | 0.06 | 72 | 1009.7 |